Regional Weather Roundup
Issued by NWS

Home | Current Version | Previous Version | Text Only | Print | Product List | Glossary Off
Versions: 1 2 3 4 5 6 7 8 9 10 11 12 13 14 15 16 17 18 19 20 21 22 23 24 25 26 27 28 29 30 31 32 33 34 35 36 37 38 39 40 41 42 43 44 45 46 47 48 49 50

000
ASUS43 KIND 280409
RWRIN

WEATHER ROUNDUP FOR INDIANA
NATIONAL WEATHER SERVICE INDIANAPOLIS IN
1200 AM EDT TUE APR 28 2015

NOTE: "FAIR" INDICATES FEW OR NO CLOUDS BELOW 12,000 FEET WITH NO
SIGNIFICANT WEATHER AND/OR OBSTRUCTIONS TO VISIBILITY.

* - STATION DOES NOT REPORT WEATHER SUCH AS PRECIPITATION OR FOG.

+ - STATION NOT QUALITY CONTROLLED BY THE NATIONAL WEATHER SERVICE.
    USE DATA WITH CAUTION...ESPECIALLY DEWPOINT AND RELATIVE
    HUMIDITY OBSERVATIONS.

INZ001>003-010>013-019-020-280500-
NORTHWEST INDIANA

CITY           SKY/WX    TMP DP  RH WIND       PRES   REMARKS
GARY /AIRPORT/ CLEAR     39  32  77 CALM      30.12F
KNOX *+        CLEAR     36  28  75 CALM      30.10F
LA PORTE +     CLEAR     39  34  82 CALM      30.11F
MICHIGAN CITY+ CLEAR     34  32  93 CALM      30.12S
MONTICELLO +   CLEAR     42  35  76 NE7       30.10S
VALPARAISO     CLEAR     39  33  79 N3        30.11F

$$

LMZ046-743>745-280500-
SOUTHERN LAKE MICHIGAN

STATION/POSITION TIME  TEMP    WIND        PRES    WAVE
                       AIR SEA DIR/SP/G            HT
                 (UTC) (F)     (DEG/KT/KT) (MB)    (FT)
BURNS HARBOR     0400   42     330/  5/  6 1020.7S
MICHIGAN CITY    0400   41     300/  7/  8   N/A
5NW MICH CITY    0400   40 45  330/  8/ 10   N/A     3

$$

INZ004-005-014>016-021>024-280500-
NORTH CENTRAL INDIANA

CITY           SKY/WX    TMP DP  RH WIND       PRES   REMARKS
GOSHEN         CLEAR     38  33  82 N5        30.10S
LOGANSPORT +   CLEAR     43  34  70 N6        30.11S
PERU/GRISSOM   CLEAR     41  35  81 NE6       30.09S
ROCHESTER +    CLEAR     45  37  76 CALM      30.11S
SOUTH BEND     CLEAR     37  31  78 CALM      30.11F
WARSAW +       FAIR      39  36  87 CALM      30.10S

$$

INZ006>009-017-018-025>027-280500-
NORTHEAST INDIANA

CITY           SKY/WX    TMP DP  RH WIND       PRES   REMARKS
ANGOLA *+      CLEAR     37  34  87 CALM      30.10R
AUBURN +       CLEAR     36  32  87 CALM      30.10S
FORT WAYNE     CLEAR     38  33  82 N3        30.10S
HUNTINGTON +   CLEAR     38  34  83 CALM      30.10S

$$

INZ028-029-035-036-043>045-051>053-280500-
WEST CENTRAL INDIANA

CITY           SKY/WX    TMP DP  RH WIND       PRES   REMARKS
CRAWFORDSVL +  CLEAR     41  30  66 N7        30.08F
GREENCASTLE +  FAIR      43  32  65 N6        30.08F
LAFAYETTE      CLEAR     42  34  73 N7        30.10R
TERRE HAUTE    CLEAR     45  36  70 N8        30.08F

$$

INZ030>032-037>040-046>048-054>057-064-065-280500-
CENTRAL INDIANA

CITY           SKY/WX    TMP DP  RH WIND       PRES   REMARKS
CP ATTERBURY + MOCLDY    46  37  71 N5        30.07F
FISHERS *+     CLEAR     43  39  87 CALM      30.09
FRANKFORT +    CLEAR     42  36  78 NW5       30.11R
GREENWOOD *+   CLEAR     45  34  65 NE5       30.08R
INDIANAPOLIS   CLEAR     45  36  70 N7        30.06S
-EAGLE CREEK   CLEAR     45  36  70 NE5       30.07S
KOKOMO *+      CLEAR     41  36  81 NE6       30.09S
MARION +       CLEAR     43  35  72 NE3       30.10S
MT COMFORT *+  CLEAR     41  32  70 NE7       30.09R
SHELBYVILLE    PTCLDY    48  38  68 NE7       30.07R
ZIONSVILLE +   CLEAR     43  36  75 N5        30.09R

$$

INZ033-034-041-042-049-050-058-059-280500-
EAST CENTRAL INDIANA

CITY           SKY/WX    TMP DP  RH WIND       PRES   REMARKS
MUNCIE         CLEAR     44  36  73 NE6       30.08S

$$

INZ060-061-067>069-081>083-085>088-280500-
SOUTHWEST INDIANA

CITY           SKY/WX    TMP DP  RH WIND       PRES   REMARKS
EVANSVILLE     CLEAR     51  39  63 N7        30.07R
HUNTINGBURG *+ CLEAR     48  36  61 N5        30.06S
WASHINGTON +   CLEAR     46  37  70 N6        30.06S

$$

INZ062-063-066-070>080-084-089>092-280500-
SOUTH CENTRAL AND SOUTHEAST INDIANA

CITY           SKY/WX    TMP DP  RH WIND       PRES   REMARKS
BEDFORD +      CLEAR     46  36  66 CALM      30.06S
BLOOMINGTON    CLEAR     44  36  73 N5        30.06F
MADISON *+     CLEAR     45  36  70 NE6       30.07S
NORTH VERNON + CLEAR     45  39  81 NE5       30.07S
SEYMOUR +      CLEAR     48  39  71 NE7       30.05F

$$



USA.gov is the U.S. government's official web portal to all federal, state and local government web resources and services.